Location: Marcé
(47.5801°N, 0.3280°W)
Time: 06:41:25
(UTC+01:00)

ISS - Pass Details

Date: 01 November 2021
Orbit: 417 x 422 km, 51.6° (Epoch: 04 December)

Event Time Altitude Azimuth Distance (km) Brightness Sun altitude
Exits shadow 04:41:56 12° 63° (ENE) 1,388 -0.3 -31.2°
Drops below altitude 10° 04:42:13 10° 64° (ENE) 1,503 -0.1 -31.2°
Sets 04:44:21 0° 68° (ENE) 2,367 1.2 -30.8°
